Вернуться в каталог

STARLINK-33901

АктивенСвязьVLEO
NORAD 63878·PAYLOAD·🇺🇸 United States

Запущен May 10, 2025 с Vandenberg Space Force Base

Loading…

Ближайшие Пролёты (ближайшие 24 часа)

TLE

СвежийSource: CelesTrak SupGP

Эпоха: Sep 14, 2026, 22:45 UTC

1 63878C 25094Q   26257.94840278 -.00001643  00000+0 -57171-4 0  2573
2 63878  69.9993 115.6934 0003148 272.6103  21.1053 15.29574152    19

Отслеживайте STARLINK-33901 в реальном времени с AllMySat

Download on the App Store